SCP
0 0 0 0 0 0 0 0 0 0 0 0 0 0 0 0 0 0 0 0 0 0 0 0 0 0 0 0 0 0 0 0 0 0 0 0 0 0 0 0 0 0 0
0 0 0 0 0 0 0 0 0 0 0 0 0 0 0 0 0 0 0 0 0 0 0 0 0 0 0 0 0 0 0 0 0 0 0 0 0 0 0 0 0 0 0
0 0 0 0 0 0 0 0 0 0 0 0 0 0 0 0 0 0 0 0 0 0 0 0 0 0 0 0 0 0 0 0 0 0 0 0 0 0 0 0 0 0 0
0 0 0 0 0 0 0 0 0 0 0 0 0 0 0 0 0 0 0 0 0 0 0 0 0 0 0 0 0 0 0 0 0 0 0 0 0 0 0 0 0 0 0
0 0 0 0 0 0 0 0 0 0 0 0 0 0 0 0 0 0 0 0 0 0 0 0 0 0 0 0 0 0 0 0 0 0 0 0 0 0 0 0 0 0 0
0 0 0 0 0 0 0 0 0 0 0 0 0 0 0 0 0 0 0 0 0 0 0 0 0 0 0 0 0 0 0 0 0 0 0 0 0 0 0 0 0 0 0
0 0 0 0 0 0 0 0 0 0 0 0 0 0 0 0 0 0 0 0 0 0 0 0 0 0 0 0 0 0 0 0 0 0 0 0 0 0 0 0 0 0 0
0 0 0 0 0 0 0 0 0 0 0 0 0 0 0 0 0 0 0 0 0 0 0 0 0 0 0 0 0 0 0 0 0 0 0 0 0 0 0 0 0 0 0
0 0 0 0 0 0 0 0 0 0 0 0 0 0 0 0 0 0 0 0 0 0 0 0 0 0 0 0 0 0 0 0 0 0 0 0 0 0 0 0 0 0 0
0 0 0 0 0 0 0 0 0 0 0 0 0 0 0 0 0 0 0 0 0 0 0 0 0 0 0 -0 0 0 0 0 0 0 0 0 0 0 0 0 0 0 0
0 0 0 0 0 0 0 0 0 0 0 0 0 0 0 0 0 0 0 0 0 0 0 0 0 0 0 0 0 0 0 0 0 0 0 0 0 0 0 0 0 0 0
0 0 0 0 0 0 0 0 0 0 0 0 0 0 0 0 0 0 0 0 0 0 0 0 0 0 0 0 0 0 0 0 0 0 0 0 0 0 0 0 0 0 0
0 0 0 0 0 0 0 0 0 0 0 0 0 0 0 0 0 0 0 0 0 0 0 0 -0 -0 -0 -0 -0 0 0 0 0 0 0 0 0 0 0 0 0 0 0
0 0 0 0 0 0 0 0 0 0 0 0 0 0 0 0 0 0 0 0 0 0 0 0 -0 -0 -0 -0 0 0 0 0 0 0 0 0 0 0 0 0 0 0 0
0 0 0 0 0 0 0 0 0 0 0 0 0 0 0 0 0 0 0 0 -0 -0 -0 0 -0 0 0 0 0 0 0 0 0 0 0 0 0 0 0 0 0 0 0
0 0 0 0 0 0 0 0 0 0 0 0 0 0 0 0 0 0 0 0 0 -0 0 0 0 0 0 0 0 0 0 0 0 0 0 0 0 0 0 0 0 0 0
0 0 0 0 0 0 0 0 0 0 0 0 0 0 0 0 0 0 0 0 0 0 0 0 0 0 0 0 0 0 0 0 0 0 0 0 0 0 0 0 0 0 0
0 0 0 0 0 0 0 0 0 0 0 0 0 0 0 0 0 0 0 0 -0 -0 -0 0 0 0 0 0 0 0 0 0 0 -0 0 0 0 0 0 0 0 0 0
0 0 0 0 0 0 0 0 0 0 0 0 0 0 0 0 0 -0 -0 -0 -0 -0 -0 -0 -0 0 0 0 0 0 0 0 0 -0 0 0 0 0 0 0 0 0 0
0 0 0 0 0 0 0 0 0 0 0 0 0 0 0 0 -0 -0 -0 -0 -0 -0 -0 -0 -0 -0 -0 0 0 0 0 0 0 0 0 0 0 0 0 0 0 0 0
0 0 0 0 0 0 0 0 -0 0 0 0 -0 -0 -0 -0 -0 -0 -0 -0 -0 -0 -0 -0 -0 -0 -0 0 0 0 0 0 0 0 0 0 0 0 0 0 0 0 0
0 0 0 0 0 0 -0 -0 0 0 0 -0 -0 -0 -0 -0 -0 -0 -0 0 -0 -0 -0 -0 -0 -0 0 0 0 0 0 0 0 0 0 0 0 0 0 0 0 0 0
0 0 0 0 0 0 -0 -0 -0 0 0 -0 -0 -0 -0 -0 -0 -0 -0 -0 -0 0 0 -0 0 0 0 0 0 0 0 0 0 0 0 0 0 0 0 0 0 0 0
0 0 0 0 0 0 0 0 0 0 0 0 -0 -0 -0 -0 -0 -0 -0 -0 -0 -0 0 0 0 0 0 0 0 0 0 0 0 0 0 0 0 0 0 0 0 0 0
0 0 0 0 0 0 0 0 0 0 0 0 -0 -0 -0 -0 -0 -0 -0 -0 0 0 0 0 0 0 0 0 0 0 0 0 0 0 0 0 0 0 0 0 0 0 0
0 0 0 0 0 0 0 0 0 0 0 -0 -0 -0 -0 -0 -0 -0 -0 -0 0 0 0 0 0 0 0 0 0 0 0 0 0 0 0 0 0 0 0 0 0 0 0
Wind_Speed_500mb
34 32 25 22 22 18 17 11 13 16 12 11 11 10 10 11 12 14 16 18 20 21 21 21 22 23 25 27 28 29 30 30 31 33 34 36 38 39 40 42 45 47 47
43 39 31 26 26 24 15 13 13 15 14 13 12 10 10 12 13 15 17 19 21 22 22 21 21 23 25 27 29 30 30 31 31 31 33 35 38 39 41 42 44 46 49
49 44 38 36 28 26 22 17 15 14 10 10 9 9 10 12 15 16 18 20 19 22 23 23 22 19 18 21 22 22 24 27 27 32 37 39 42 44 46 49 51 54 56
50 44 40 35 33 29 22 19 16 15 11 8 7 9 12 14 15 16 17 17 18 20 20 16 10 13 16 23 25 25 27 30 33 35 40 42 43 44 45 46 48 49 52
48 42 37 34 34 30 23 20 14 9 6 5 6 9 12 11 6 9 10 20 15 20 19 13 14 15 21 24 27 27 28 32 39 44 47 47 46 48 49 51 52 54 53
46 39 33 29 27 21 18 18 14 9 4 1 5 8 9 7 3 6 6 23 15 23 23 14 10 14 21 27 31 33 33 38 43 43 42 42 44 47 49 51 53 55 59
45 39 34 27 23 19 18 16 14 9 4 3 10 13 14 5 11 18 13 10 12 12 18 24 20 20 26 32 35 31 37 32 34 39 42 43 46 47 52 55 55 52 54
41 35 32 26 23 25 24 19 13 6 3 2 6 11 8 15 18 6 1 10 12 19 29 22 22 31 26 19 21 28 28 31 38 40 42 41 42 45 47 49 50 53 52
38 34 30 28 30 27 25 24 16 13 10 4 4 0 2 2 8 11 6 12 18 22 20 17 18 16 19 30 33 40 47 44 40 42 46 49 48 49 51 51 48 48 48
48 39 31 28 27 27 25 22 15 13 11 10 10 7 6 7 3 2 6 8 19 21 22 19 23 27 32 39 45 48 51 52 52 46 42 39 42 43 42 44 46 50 51
39 33 36 36 33 33 27 13 5 9 7 9 9 7 4 2 5 2 5 16 15 23 16 22 27 32 38 47 48 48 50 52 53 54 54 54 54 53 49 47 48 49 48
17 19 28 33 33 37 24 16 12 15 16 8 11 13 11 11 16 14 9 14 18 19 14 23 25 38 46 48 49 50 54 55 57 59 59 59 58 56 55 53 52 51 50
42 43 42 36 29 35 39 36 23 16 18 17 18 19 19 18 16 14 14 19 21 15 16 19 29 42 51 56 57 57 58 59 61 63 64 63 61 60 59 58 57 56 56
48 43 45 46 44 36 32 25 27 28 24 27 26 24 23 25 23 24 25 24 14 10 17 16 41 46 50 56 59 61 60 61 59 59 60 61 60 60 63 61 59 58 57
40 38 37 38 37 35 35 32 36 37 32 33 32 27 25 26 22 21 21 23 26 21 17 27 44 50 51 54 56 59 60 57 56 57 58 59 57 51 51 54 51 52 51
42 41 42 43 43 43 40 37 39 37 29 32 29 23 22 24 21 21 23 25 27 27 20 32 40 47 51 52 56 58 58 58 58 59 59 58 55 47 53 59 60 47 51
43 43 43 44 44 42 39 34 34 31 26 26 26 23 25 26 24 25 26 26 28 31 34 36 40 43 46 51 54 55 58 59 56 56 56 56 56 50 55 62 60 48 48
40 39 38 36 35 34 32 30 29 29 27 27 29 26 30 29 27 30 32 33 34 35 35 38 42 49 56 62 65 67 66 64 64 56 56 59 60 56 55 53 48 41 39
34 33 30 31 32 33 31 30 28 29 28 30 32 33 34 31 31 32 33 34 35 37 41 43 49 57 65 73 77 75 74 69 64 62 61 61 55 51 45 43 39 37 41
28 28 30 33 33 32 31 28 27 28 32 33 34 34 34 34 36 37 37 39 39 41 46 56 64 70 74 74 72 76 74 69 65 61 59 51 47 45 47 35 37 42 48
28 28 29 30 30 28 30 28 29 30 31 32 32 33 38 39 41 43 41 45 51 54 59 61 63 69 71 69 72 75 76 78 67 68 56 49 48 43 44 39 51 56 50
25 24 26 26 25 27 30 26 27 30 30 29 31 36 40 38 42 43 46 49 49 52 57 61 65 63 60 61 64 70 75 80 76 61 57 57 51 45 33 38 48 49 48
22 21 22 22 24 27 26 24 25 25 27 28 32 34 37 41 37 38 43 44 49 51 53 55 54 55 55 60 66 67 65 63 60 52 61 58 56 40 25 36 45 51 53
21 20 16 19 19 22 23 22 22 23 25 27 30 35 37 33 35 39 41 43 42 44 45 47 49 49 52 54 57 60 61 59 54 39 59 51 58 37 20 47 49 49 56
20 19 17 16 16 17 17 18 20 19 21 25 30 32 28 32 39 37 35 35 36 37 41 42 44 45 47 50 55 58 61 62 61 39 55 47 56 55 24 49 50 53 53
21 19 17 16 15 14 14 14 16 18 19 21 25 25 28 30 27 28 28 31 33 37 39 37 38 42 46 50 55 57 56 53 50 33 51 49 52 58 35 56 51 63 53
Wind_Direction_500mb
190 197 206 208 195 212 184 186 189 202 206 214 223 240 256 274 287 290 297 307 312 315 318 316 313 309 305 304 301 299 299 299 298 300 302 302 299 295 292 289 287 287 288
195 195 198 206 193 201 225 224 229 215 215 216 228 250 268 288 302 310 315 316 315 313 312 314 312 317 319 314 306 298 297 299 304 307 302 298 295 296 294 292 292 290 291
200 204 198 209 203 209 229 217 214 221 229 245 261 276 291 306 318 323 323 319 317 319 312 308 311 326 337 338 332 321 309 313 309 303 300 299 297 294 293 292 292 292 293
202 211 204 209 214 216 228 231 230 230 223 236 287 316 311 310 320 323 328 327 336 342 334 334 343 341 347 338 330 325 320 312 306 304 301 300 300 299 297 297 298 298 298
201 198 202 208 214 220 220 230 220 205 202 229 272 300 320 329 342 355 14 22 15 27 15 16 358 347 331 326 325 323 314 306 303 303 305 304 301 299 299 298 296 296 296
202 201 197 200 205 210 202 184 170 160 141 51 312 326 337 332 39 48 49 11 34 19 22 9 350 313 311 311 310 306 303 303 306 307 310 312 312 310 307 305 305 305 302
201 197 191 191 195 189 168 159 161 168 156 316 341 3 76 31 75 60 51 51 354 342 352 331 320 313 311 309 305 297 292 297 313 312 307 308 308 311 310 307 304 306 302
193 187 185 177 174 165 159 172 170 166 172 352 2 20 66 102 69 87 169 340 336 327 318 320 323 331 318 336 337 359 346 338 337 325 317 314 313 314 311 310 312 307 306
178 177 177 172 173 172 177 185 192 213 228 202 249 98 105 155 27 104 344 333 337 343 354 3 18 17 354 342 340 333 332 339 327 322 316 312 315 314 311 310 313 309 303
173 173 180 184 184 188 199 208 217 230 250 249 198 169 5 328 121 21 349 345 355 8 16 25 9 1 349 350 351 346 343 341 340 337 331 329 323 320 318 317 316 313 310
169 179 188 186 192 197 210 193 206 236 222 211 142 110 339 88 58 54 343 15 32 18 19 1 359 358 359 356 354 348 343 338 332 330 329 328 324 322 320 316 315 314 313
156 196 209 213 201 194 176 159 142 136 117 72 77 81 70 60 49 38 17 9 50 41 355 357 5 358 351 341 342 344 338 335 333 330 330 329 329 327 324 321 317 314 312
126 130 147 154 145 140 132 124 119 103 97 98 90 80 80 75 71 71 58 51 59 60 7 344 349 340 340 337 340 338 335 334 333 329 326 323 322 321 321 320 319 317 315
105 105 110 110 111 111 106 103 106 102 99 94 91 88 80 74 62 48 37 31 53 65 351 343 333 336 344 344 343 342 340 338 333 328 323 320 319 320 318 318 317 316 316
106 108 107 105 102 99 96 96 94 94 98 93 87 81 73 66 54 43 30 20 26 18 12 338 346 351 354 352 351 349 348 347 339 334 330 326 322 318 320 311 309 313 311
106 107 106 103 103 100 99 100 100 97 95 92 85 77 71 60 49 41 32 26 23 22 18 3 2 0 3 6 5 2 358 355 351 345 342 338 334 336 319 313 306 306 318
102 104 104 106 106 104 105 102 98 93 86 84 81 69 66 60 50 47 43 36 32 30 23 22 15 9 7 9 9 7 3 359 356 352 346 341 338 328 314 320 323 309 318
108 107 107 106 102 100 99 97 98 93 88 83 77 73 71 64 58 53 47 42 37 35 28 22 15 12 9 9 4 3 6 6 359 356 353 345 342 339 334 329 331 316 303
110 110 107 106 105 102 99 95 94 94 90 84 80 75 68 62 58 54 52 49 41 36 31 23 18 12 9 5 1 359 1 1 358 356 357 351 348 347 347 344 347 343 333
111 111 108 105 102 100 96 92 87 88 91 87 82 75 67 62 59 54 49 45 40 34 29 22 17 12 8 4 356 355 358 3 358 1 2 357 8 12 10 5 352 339 334
114 112 109 107 105 102 96 93 91 88 83 79 76 73 68 61 54 46 42 39 34 26 22 17 12 10 3 358 357 357 357 355 5 359 5 7 4 5 12 10 358 350 345
118 116 115 112 109 101 94 93 90 89 80 73 73 66 62 58 51 43 37 31 27 24 19 15 11 4 360 358 357 358 357 358 359 358 360 3 2 2 359 15 11 357 352
127 130 129 118 102 101 98 93 91 89 84 79 71 68 63 56 49 43 38 29 22 18 17 13 6 1 0 360 358 357 358 358 357 358 0 10 12 16 34 15 6 356 354
156 139 127 118 113 108 108 106 103 94 87 82 76 67 59 55 51 44 35 27 19 16 15 13 8 2 0 359 359 357 354 357 5 6 3 6 9 18 13 11 360 356 354
162 152 154 139 123 114 112 118 110 102 88 75 64 62 60 52 45 37 31 24 17 15 17 15 8 3 2 359 359 359 1 358 4 5 5 0 5 6 37 13 3 5 2
177 172 168 150 137 134 118 110 108 95 84 72 69 64 57 52 47 40 32 26 16 16 16 13 9 7 5 7 4 2 359 359 358 2 353 1 6 9 359 9 15 10 6
Wind_Speed_850mb
34 32 25 22 22 18 17 11 13 16 12 11 11 10 10 11 12 14 16 18 20 21 21 21 22 23 25 27 28 29 30 30 31 33 34 36 38 39 40 42 45 47 47
43 39 31 26 26 24 15 13 13 15 14 13 12 10 10 12 13 15 17 19 21 22 22 21 21 23 25 27 29 30 30 31 31 31 33 35 38 39 41 42 44 46 49
49 44 38 36 28 26 22 17 15 14 10 10 9 9 10 12 15 16 18 20 19 22 23 23 22 19 18 21 22 22 24 27 27 32 37 39 42 44 46 49 51 54 56
50 44 40 35 33 29 22 19 16 15 11 8 7 9 12 14 15 16 17 17 18 20 20 16 10 13 16 23 25 25 27 30 33 35 40 42 43 44 45 46 48 49 52
48 42 37 34 34 30 23 20 14 9 6 5 6 9 12 11 6 9 10 20 15 20 19 13 14 15 21 24 27 27 28 32 39 44 47 47 46 48 49 51 52 54 53
46 39 33 29 27 21 18 18 14 9 4 1 5 8 9 7 3 6 6 23 15 23 23 14 10 14 21 27 31 33 33 38 43 43 42 42 44 47 49 51 53 55 59
45 39 34 27 23 19 18 16 14 9 4 3 10 13 14 5 11 18 13 10 12 12 18 24 20 20 26 32 35 31 37 32 34 39 42 43 46 47 52 55 55 52 54
41 35 32 26 23 25 24 19 13 6 3 2 6 11 8 15 18 6 1 10 12 19 29 22 22 31 26 19 21 28 28 31 38 40 42 41 42 45 47 49 50 53 52
38 34 30 28 30 27 25 24 16 13 10 4 4 0 2 2 8 11 6 12 18 22 20 17 18 16 19 30 33 40 47 44 40 42 46 49 48 49 51 51 48 48 48
48 39 31 28 27 27 25 22 15 13 11 10 10 7 6 7 3 2 6 8 19 21 22 19 23 27 32 39 45 48 51 52 52 46 42 39 42 43 42 44 46 50 51
39 33 36 36 33 33 27 13 5 9 7 9 9 7 4 2 5 2 5 16 15 23 16 22 27 32 38 47 48 48 50 52 53 54 54 54 54 53 49 47 48 49 48
17 19 28 33 33 37 24 16 12 15 16 8 11 13 11 11 16 14 9 14 18 19 14 23 25 38 46 48 49 50 54 55 57 59 59 59 58 56 55 53 52 51 50
42 43 42 36 29 35 39 36 23 16 18 17 18 19 19 18 16 14 14 19 21 15 16 19 29 42 51 56 57 57 58 59 61 63 64 63 61 60 59 58 57 56 56
48 43 45 46 44 36 32 25 27 28 24 27 26 24 23 25 23 24 25 24 14 10 17 16 41 46 50 56 59 61 60 61 59 59 60 61 60 60 63 61 59 58 57
40 38 37 38 37 35 35 32 36 37 32 33 32 27 25 26 22 21 21 23 26 21 17 27 44 50 51 54 56 59 60 57 56 57 58 59 57 51 51 54 51 52 51
42 41 42 43 43 43 40 37 39 37 29 32 29 23 22 24 21 21 23 25 27 27 20 32 40 47 51 52 56 58 58 58 58 59 59 58 55 47 53 59 60 47 51
43 43 43 44 44 42 39 34 34 31 26 26 26 23 25 26 24 25 26 26 28 31 34 36 40 43 46 51 54 55 58 59 56 56 56 56 56 50 55 62 60 48 48
40 39 38 36 35 34 32 30 29 29 27 27 29 26 30 29 27 30 32 33 34 35 35 38 42 49 56 62 65 67 66 64 64 56 56 59 60 56 55 53 48 41 39
34 33 30 31 32 33 31 30 28 29 28 30 32 33 34 31 31 32 33 34 35 37 41 43 49 57 65 73 77 75 74 69 64 62 61 61 55 51 45 43 39 37 41
28 28 30 33 33 32 31 28 27 28 32 33 34 34 34 34 36 37 37 39 39 41 46 56 64 70 74 74 72 76 74 69 65 61 59 51 47 45 47 35 37 42 48
28 28 29 30 30 28 30 28 29 30 31 32 32 33 38 39 41 43 41 45 51 54 59 61 63 69 71 69 72 75 76 78 67 68 56 49 48 43 44 39 51 56 50
25 24 26 26 25 27 30 26 27 30 30 29 31 36 40 38 42 43 46 49 49 52 57 61 65 63 60 61 64 70 75 80 76 61 57 57 51 45 33 38 48 49 48
22 21 22 22 24 27 26 24 25 25 27 28 32 34 37 41 37 38 43 44 49 51 53 55 54 55 55 60 66 67 65 63 60 52 61 58 56 40 25 36 45 51 53
21 20 16 19 19 22 23 22 22 23 25 27 30 35 37 33 35 39 41 43 42 44 45 47 49 49 52 54 57 60 61 59 54 39 59 51 58 37 20 47 49 49 56
20 19 17 16 16 17 17 18 20 19 21 25 30 32 28 32 39 37 35 35 36 37 41 42 44 45 47 50 55 58 61 62 61 39 55 47 56 55 24 49 50 53 53
21 19 17 16 15 14 14 14 16 18 19 21 25 25 28 30 27 28 28 31 33 37 39 37 38 42 46 50 55 57 56 53 50 33 51 49 52 58 35 56 51 63 53
Wind_Direction_850mb
190 197 206 208 195 212 184 186 189 202 206 214 223 240 256 274 287 290 297 307 312 315 318 316 313 309 305 304 301 299 299 299 298 300 302 302 299 295 292 289 287 287 288
195 195 198 206 193 201 225 224 229 215 215 216 228 250 268 288 302 310 315 316 315 313 312 314 312 317 319 314 306 298 297 299 304 307 302 298 295 296 294 292 292 290 291
200 204 198 209 203 209 229 217 214 221 229 245 261 276 291 306 318 323 323 319 317 319 312 308 311 326 337 338 332 321 309 313 309 303 300 299 297 294 293 292 292 292 293
202 211 204 209 214 216 228 231 230 230 223 236 287 316 311 310 320 323 328 327 336 342 334 334 343 341 347 338 330 325 320 312 306 304 301 300 300 299 297 297 298 298 298
201 198 202 208 214 220 220 230 220 205 202 229 272 300 320 329 342 355 14 22 15 27 15 16 358 347 331 326 325 323 314 306 303 303 305 304 301 299 299 298 296 296 296
202 201 197 200 205 210 202 184 170 160 141 51 312 326 337 332 39 48 49 11 34 19 22 9 350 313 311 311 310 306 303 303 306 307 310 312 312 310 307 305 305 305 302
201 197 191 191 195 189 168 159 161 168 156 316 341 3 76 31 75 60 51 51 354 342 352 331 320 313 311 309 305 297 292 297 313 312 307 308 308 311 310 307 304 306 302
193 187 185 177 174 165 159 172 170 166 172 352 2 20 66 102 69 87 169 340 336 327 318 320 323 331 318 336 337 359 346 338 337 325 317 314 313 314 311 310 312 307 306
178 177 177 172 173 172 177 185 192 213 228 202 249 98 105 155 27 104 344 333 337 343 354 3 18 17 354 342 340 333 332 339 327 322 316 312 315 314 311 310 313 309 303
173 173 180 184 184 188 199 208 217 230 250 249 198 169 5 328 121 21 349 345 355 8 16 25 9 1 349 350 351 346 343 341 340 337 331 329 323 320 318 317 316 313 310
169 179 188 186 192 197 210 193 206 236 222 211 142 110 339 88 58 54 343 15 32 18 19 1 359 358 359 356 354 348 343 338 332 330 329 328 324 322 320 316 315 314 313
156 196 209 213 201 194 176 159 142 136 117 72 77 81 70 60 49 38 17 9 50 41 355 357 5 358 351 341 342 344 338 335 333 330 330 329 329 327 324 321 317 314 312
126 130 147 154 145 140 132 124 119 103 97 98 90 80 80 75 71 71 58 51 59 60 7 344 349 340 340 337 340 338 335 334 333 329 326 323 322 321 321 320 319 317 315
105 105 110 110 111 111 106 103 106 102 99 94 91 88 80 74 62 48 37 31 53 65 351 343 333 336 344 344 343 342 340 338 333 328 323 320 319 320 318 318 317 316 316
106 108 107 105 102 99 96 96 94 94 98 93 87 81 73 66 54 43 30 20 26 18 12 338 346 351 354 352 351 349 348 347 339 334 330 326 322 318 320 311 309 313 311
106 107 106 103 103 100 99 100 100 97 95 92 85 77 71 60 49 41 32 26 23 22 18 3 2 0 3 6 5 2 358 355 351 345 342 338 334 336 319 313 306 306 318
102 104 104 106 106 104 105 102 98 93 86 84 81 69 66 60 50 47 43 36 32 30 23 22 15 9 7 9 9 7 3 359 356 352 346 341 338 328 314 320 323 309 318
108 107 107 106 102 100 99 97 98 93 88 83 77 73 71 64 58 53 47 42 37 35 28 22 15 12 9 9 4 3 6 6 359 356 353 345 342 339 334 329 331 316 303
110 110 107 106 105 102 99 95 94 94 90 84 80 75 68 62 58 54 52 49 41 36 31 23 18 12 9 5 1 359 1 1 358 356 357 351 348 347 347 344 347 343 333
111 111 108 105 102 100 96 92 87 88 91 87 82 75 67 62 59 54 49 45 40 34 29 22 17 12 8 4 356 355 358 3 358 1 2 357 8 12 10 5 352 339 334
114 112 109 107 105 102 96 93 91 88 83 79 76 73 68 61 54 46 42 39 34 26 22 17 12 10 3 358 357 357 357 355 5 359 5 7 4 5 12 10 358 350 345
118 116 115 112 109 101 94 93 90 89 80 73 73 66 62 58 51 43 37 31 27 24 19 15 11 4 360 358 357 358 357 358 359 358 360 3 2 2 359 15 11 357 352
127 130 129 118 102 101 98 93 91 89 84 79 71 68 63 56 49 43 38 29 22 18 17 13 6 1 0 360 358 357 358 358 357 358 0 10 12 16 34 15 6 356 354
156 139 127 118 113 108 108 106 103 94 87 82 76 67 59 55 51 44 35 27 19 16 15 13 8 2 0 359 359 357 354 357 5 6 3 6 9 18 13 11 360 356 354
162 152 154 139 123 114 112 118 110 102 88 75 64 62 60 52 45 37 31 24 17 15 17 15 8 3 2 359 359 359 1 358 4 5 5 0 5 6 37 13 3 5 2
177 172 168 150 137 134 118 110 108 95 84 72 69 64 57 52 47 40 32 26 16 16 16 13 9 7 5 7 4 2 359 359 358 2 353 1 6 9 359 9 15 10 6